FW8170 Weather Reports


time (UTC)temp
F
wind
direction
speed
knots
gust
knots
rain 1hr
in
rain 24hr
in
rain mn
in
humidity
%
barometer
mb
20260504180334 66 274 0.9 1.7 0.00 0.00 0.00 78 1008.2
20260504175832 66 274 0.0 0.0 0.00 0.00 0.00 72 1007.8
20260504175328 65 262 0.0 0.9 0.00 0.00 0.00 75 1007.7
20260504174827 64 268 0.0 0.0 0.00 0.00 0.00 82 1008.0
20260504174324 63 266 0.0 0.0 0.00 0.00 0.00 85 1008.1
20260504173820 63 267 0.0 0.0 0.00 0.00 0.00 85 1007.8
20260504173317 63 259 0.0 0.0 0.00 0.00 0.00 84 1008.3
20260504172814 64 261 0.0 0.0 0.00 0.00 0.00 83 1008.2
20260504172311 64 278 0.0 0.0 0.00 0.00 0.00 81 1008.5
20260504171806 64 274 0.0 0.0 0.00 0.00 0.00 82 1008.3
20260504171304 65 273 0.0 0.9 0.00 0.00 0.00 78 1008.1
20260504170801 64 259 0.0 0.9 0.00 0.00 0.00 75 1008.2
20260504170258 65 262 0.9 0.9 0.00 0.00 0.00 78 1008.1
20260504160216 66 269 0.0 0.9 0.00 0.00 0.00 68 1009.8
20260504151144 68 291 0.0 0.9 0.00 0.00 0.00 67 1010.4
20260504150642 69 272 0.0 0.0 0.00 0.00 0.00 65 1010.1
20260504150138 69 277 0.0 0.0 0.00 0.00 0.00 66 1010.3
20260504141107 70 248 0.9 0.9 0.00 0.00 0.00 63 1009.7
20260504140604 70 274 0.0 0.9 0.00 0.00 0.00 63 1010.0
20260504130528 66 266 0.9 1.7 0.00 0.00 0.00 71 1010.6
20260504110415 58 281 0.0 0.0 0.00 0.00 0.00 81 1011.0
20260504100332 59 284 0.0 1.7 0.00 0.00 0.00 78 1010.7
20260504081726 60 262 0.0 0.9 0.00 0.00 0.00 75 1010.7
20260504081222 60 254 0.9 1.7 0.00 0.00 0.00 74 1010.6
20260504080718 60 282 0.0 0.0 0.00 0.00 0.00 75 1010.7
20260504080215 60 249 0.9 1.7 0.00 0.00 0.00 75 1010.5
20260504070143 63 261 0.0 0.9 0.00 0.00 0.00 67 1010.9
20260504050531 66 269 0.0 0.9 0.00 0.00 0.00 60 1010.4
20260504045525 66 236 0.0 1.7 0.00 0.00 0.00 60 1010.4
20260504045020 66 270 0.0 0.9 0.00 0.00 0.00 59 1010.6
20260504044518 66 261 0.0 0.9 0.00 0.00 0.00 59 1010.6
20260504044015 66 246 0.0 0.9 0.00 0.00 0.00 59 1010.8
20260504043512 66 244 0.0 1.7 0.00 0.00 0.00 59 1011.2
20260504043009 67 277 0.0 0.9 0.00 0.00 0.00 59 1011.4
20260504042506 67 267 0.0 0.0 0.00 0.00 0.00 58 1011.4
20260504042003 67 258 0.0 0.9 0.00 0.00 0.00 57 1011.3
20260504041459 68 250 0.0 0.9 0.00 0.00 0.00 57 1011.5
20260504040955 68 275 0.0 0.9 0.00 0.00 0.00 57 1011.4
20260504040453 68 273 0.9 0.9 0.00 0.00 0.00 56 1011.5
20260504035948 68 259 0.0 0.9 0.00 0.00 0.00 57 1011.5
20260504035446 68 273 0.0 0.9 0.00 0.00 0.00 57 1011.7
20260504034943 68 263 0.0 0.9 0.00 0.00 0.00 56 1012.1
20260504034440 68 275 0.0 0.9 0.00 0.00 0.00 55 1011.9
20260504033937 68 242 0.0 1.7 0.00 0.00 0.00 55 1012.1
20260504033435 68 224 0.0 0.9 0.00 0.00 0.00 56 1012.1
20260504032932 68 261 0.0 0.9 0.00 0.00 0.00 56 1012.1
20260504032429 68 255 0.0 0.9 0.00 0.00 0.00 56 1011.8
20260504031925 68 265 0.0 0.9 0.00 0.00 0.00 56 1012.1
20260504031422 68 270 0.0 0.9 0.00 0.00 0.00 55 1012.1
20260504030919 68 275 0.0 0.0 0.00 0.00 0.00 56 1012.0
20260504030416 68 280 0.0 0.0 0.00 0.00 0.00 56 1012.1
20260504025912 68 271 0.0 0.0 0.00 0.00 0.00 55 1011.8
20260504025409 68 272 0.0 0.0 0.00 0.00 0.00 55 1011.9
20260504024906 68 273 0.0 0.0 0.00 0.00 0.00 55 1011.8
20260504024403 68 291 0.0 0.9 0.00 0.00 0.00 55 1011.9
20260504023900 68 269 0.0 0.0 0.00 0.00 0.00 55 1011.8
20260504023356 68 274 0.0 0.0 0.00 0.00 0.00 55 1011.8
20260504022852 68 270 0.0 0.0 0.00 0.00 0.00 55 1011.8
20260504022349 68 271 0.0 0.0 0.00 0.00 0.00 54 1011.8
20260504021845 68 274 0.0 0.0 0.00 0.00 0.00 54 1011.7
20260504021343 68 274 0.0 0.0 0.00 0.00 0.00 54 1011.6
20260504020840 68 275 0.0 0.0 0.00 0.00 0.00 54 1011.6
20260504020336 69 274 0.0 0.9 0.00 0.00 0.00 54 1011.6
20260504015832 69 272 0.0 0.0 0.00 0.00 0.00 53 1011.8
20260504015329 69 272 0.0 0.0 0.00 0.00 0.00 52 1011.4
20260504014825 69 272 0.0 0.0 0.00 0.00 0.00 52 1011.4
20260504014321 69 272 0.0 0.0 0.00 0.00 0.00 52 1011.4
20260504013819 70 272 0.0 0.0 0.00 0.00 0.00 52 1011.4
20260504013316 70 272 0.0 0.0 0.00 0.00 0.00 51 1011.3
20260504012813 70 267 0.0 0.9 0.00 0.00 0.00 51 1011.3
20260504012311 71 266 0.0 0.0 0.00 0.00 0.00 50 1011.2
20260504011808 71 266 0.0 0.0 0.00 0.00 0.00 49 1011.2
20260504011304 71 266 0.0 0.0 0.00 0.00 0.00 49 1011.2
20260504010800 72 266 0.0 0.0 0.00 0.00 0.00 48 1011.3
20260504010256 72 266 0.0 0.0 0.00 0.00 0.00 48 1011.2
20260504005753 72 266 0.0 0.0 0.00 0.00 0.00 47 1011.3
20260504005250 73 266 0.0 0.0 0.00 0.00 0.00 47 1011.4
20260504004747 73 268 0.0 0.9 0.00 0.00 0.00 47 1011.1
20260504004244 73 269 0.0 0.9 0.00 0.00 0.00 46 1011.2
20260504003741 73 268 0.0 0.9 0.00 0.00 0.00 46 1011.2
20260504003238 73 267 0.0 0.0 0.00 0.00 0.00 45 1011.3
20260504002734 74 269 0.0 0.9 0.00 0.00 0.00 45 1011.3
20260504002231 74 262 0.0 0.9 0.00 0.00 0.00 45 1011.3
20260504001730 74 262 0.0 0.9 0.00 0.00 0.00 45 1011.2
20260504001226 74 255 0.0 0.9 0.00 0.00 0.00 44 1011.3
20260504000723 75 259 0.0 0.9 0.00 0.00 0.00 44 1011.1
20260504000220 75 257 0.9 1.7 0.00 0.00 0.00 44 1011.3
20260503235718 75 246 0.0 0.9 0.00 0.00 0.00 43 1011.3
20260503235215 75 267 0.0 0.9 0.00 0.00 0.00 43 1011.3
20260503234713 75 269 0.0 0.9 0.00 0.00 0.00 42 1011.3
20260503234211 76 263 0.0 1.7 0.00 0.00 0.00 41 1011.3
20260503233707 76 255 0.9 4.3 0.00 0.00 0.00 41 1011.6
20260503233203 76 262 0.9 2.6 0.00 0.00 0.00 41 1011.7
20260503232700 76 250 0.0 0.9 0.00 0.00 0.00 40 1011.5
20260503232157 76 277 0.0 0.9 0.00 0.00 0.00 41 1011.5
20260503231655 76 234 0.0 1.7 0.00 0.00 0.00 40 1011.5
20260503231151 76 253 0.9 0.9 0.00 0.00 0.00 39 1011.5
20260503230648 76 247 0.9 1.7 0.00 0.00 0.00 39 1011.7
20260503230145 77 227 0.0 1.7 0.00 0.00 0.00 38 1011.6
20260503225643 77 262 0.0 1.7 0.00 0.00 0.00 39 1011.4
20260503225142 77 234 1.7 1.7 0.00 0.00 0.00 38 1011.7
20260503224640 77 257 0.9 1.7 0.00 0.00 0.00 38 1011.8
20260503224138 77 261 0.0 0.9 0.00 0.00 0.00 38 1011.6
20260503223636 77 183 0.9 1.7 0.00 0.00 0.00 37 1011.6
20260503223132 77 82 0.9 1.7 0.00 0.00 0.00 36 1011.8
20260503222629 77 285 0.9 4.3 0.00 0.00 0.00 36 1011.8
20260503222127 77 235 1.7 2.6 0.00 0.00 0.00 37 1011.6
20260503221625 77 266 0.9 1.7 0.00 0.00 0.00 36 1011.8
20260503221122 77 223 0.0 0.9 0.00 0.00 0.00 36 1012.0
20260503220619 77 308 1.7 1.7 0.00 0.00 0.00 37 1011.9
20260503220115 77 270 0.9 1.7 0.00 0.00 0.00 36 1011.9
20260503215612 77 265 0.0 0.9 0.00 0.00 0.00 36 1012.1
20260503215109 77 229 0.0 2.6 0.00 0.00 0.00 36 1012.0
20260503214608 77 280 0.9 1.7 0.00 0.00 0.00 35 1012.1
20260503214103 77 217 1.7 1.7 0.00 0.00 0.00 36 1012.1
20260503213603 77 219 0.0 2.6 0.00 0.00 0.00 36 1011.8
20260503213058 77 262 0.9 2.6 0.00 0.00 0.00 37 1012.0
20260503212556 77 230 0.9 2.6 0.00 0.00 0.00 36 1012.0
20260503212053 77 263 0.9 2.6 0.00 0.00 0.00 37 1012.2
20260503211550 77 249 0.9 4.3 0.00 0.00 0.00 36 1012.0
20260503211045 77 252 0.9 1.7 0.00 0.00 0.00 37 1012.3
20260503210543 76 266 1.7 2.6 0.00 0.00 0.00 36 1012.3
20260503210038 77 283 1.7 2.6 0.00 0.00 0.00 39 1012.4
20260503205535 76 274 0.0 2.6 0.00 0.00 0.00 37 1012.4
20260503205032 76 190 2.6 4.3 0.00 0.00 0.00 36 1012.6
20260503204529 75 273 1.7 4.3 0.00 0.00 0.00 37 1012.7
20260503204025 75 292 0.9 2.6 0.00 0.00 0.00 37 1012.8
20260503203523 76 263 0.0 0.9 0.00 0.00 0.00 38 1012.8
20260503203020 76 273 0.9 1.7 0.00 0.00 0.00 37 1012.9
20260503202518 76 278 0.9 2.6 0.00 0.00 0.00 37 1013.0
20260503202015 75 257 0.9 0.9 0.00 0.00 0.00 39 1013.3
20260503201514 75 281 0.0 0.9 0.00 0.00 0.00 40 1013.3
20260503201010 75 204 0.9 1.7 0.00 0.00 0.00 42 1013.5
20260503200506 75 280 0.9 2.6 0.00 0.00 0.00 39 1013.6
20260503200003 74 84 1.7 4.3 0.00 0.00 0.00 39 1013.7
20260503195500 74 173 1.7 2.6 0.00 0.00 0.00 39 1013.8
20260503194957 74 234 1.7 2.6 0.00 0.00 0.00 40 1014.0
20260503194455 73 330 1.7 2.6 0.00 0.00 0.00 40 1014.1
20260503193949 73 262 0.9 4.3 0.00 0.00 0.00 40 1014.4
20260503193445 73 236 0.9 4.3 0.00 0.00 0.00 41 1014.3
20260503192941 74 185 2.6 2.6 0.00 0.00 0.00 40 1014.5
20260503192437 74 298 0.9 1.7 0.00 0.00 0.00 40 1014.6
20260503191933 73 278 0.9 2.6 0.00 0.00 0.00 40 1014.8
20260503191431 73 235 0.9 1.7 0.00 0.00 0.00 40 1014.9
20260503190927 73 240 0.9 2.6 0.00 0.00 0.00 40 1015.1
20260503190425 73 273 0.9 1.7 0.00 0.00 0.00 42 1015.2
20260503185921 73 244 0.9 1.7 0.00 0.00 0.00 39 1015.2
20260503185418 73 279 0.0 1.7 0.00 0.00 0.00 40 1015.2
20260503184917 72 255 0.9 1.7 0.00 0.00 0.00 42 1015.6
20260503184414 72 290 2.6 5.2 0.00 0.00 0.00 39 1015.8
20260503183910 72 284 0.0 1.7 0.00 0.00 0.00 43 1015.8
20260503183407 72 285 1.7 2.6 0.00 0.00 0.00 40 1015.9
20260503182904 72 282 0.9 1.7 0.00 0.00 0.00 40 1016.1
20260503182403 71 262 0.0 1.7 0.00 0.00 0.00 41 1016.3
20260503181859 71 280 0.0 6.1 0.00 0.00 0.00 42 1016.2
20260503181356 71 316 0.0 5.2 0.00 0.00 0.00 43 1016.4
20260503180853 70 257 0.9 1.7 0.00 0.00 0.00 40 1016.7
20260503180351 70 278 0.9 2.6 0.00 0.00 0.00 41 1016.9